Wind_Speed
52 52 51 50 49 50 51 52 53 55 57 56 51 52 57 58 65 66 69 69 67 69 67 65 57 53 48 47 47 46 48 51 52
55 56 54 52 53 51 53 53 57 59 59 48 52 52 57 62 66 70 72 70 70 66 65 56 47 45 42 42 42 43 45 47 49
59 58 59 56 56 56 56 54 53 53 51 55 56 59 62 64 70 74 71 68 67 68 59 50 45 44 44 45 44 45 46 48 49
63 62 60 61 61 62 61 60 60 59 61 62 60 64 66 69 73 71 69 67 68 63 51 47 48 49 48 46 45 46 46 46 49
66 66 65 63 64 67 65 64 66 68 67 62 62 65 68 69 71 68 64 65 64 55 48 47 46 45 43 42 43 44 45 46 45
67 64 64 64 64 66 59 60 62 62 60 59 65 68 68 71 66 64 62 62 59 47 45 42 40 37 36 37 37 39 40 41 42
69 69 67 66 67 65 67 68 69 67 63 67 68 69 68 69 64 66 60 60 55 48 46 42 39 37 36 36 36 36 36 38 38
71 71 71 71 69 68 68 68 68 67 69 68 70 70 68 67 65 62 60 57 50 47 45 45 43 41 41 40 40 39 40 40 40
76 76 74 74 73 71 71 68 68 68 68 68 70 70 66 66 65 60 57 54 49 49 45 43 41 40 40 40 41 41 41 42 43
79 79 78 76 75 73 72 70 68 67 69 70 69 66 65 66 63 55 55 50 45 42 41 42 42 42 42 42 43 43 45 46 47
74 74 72 72 72 69 68 68 69 68 68 67 67 66 66 67 59 55 54 50 45 43 43 44 45 45 46 46 47 48 50 52 54
75 75 74 73 72 70 67 67 68 66 65 66 67 67 69 62 58 55 54 50 47 47 49 50 51 52 52 51 52 54 56 57 59
71 75 76 77 75 74 72 70 67 65 63 65 66 69 69 60 57 54 54 52 51 52 54 56 57 56 57 58 58 60 61 62 64
56 58 59 63 65 66 66 66 66 63 64 66 68 69 61 58 56 55 55 55 55 57 60 60 61 61 62 64 66 67 69 71 73
52 52 54 55 58 60 62 63 64 66 67 66 68 60 58 56 57 56 56 58 59 62 64 65 66 69 71 72 75 76 78 80 82
53 53 54 56 55 56 60 63 65 65 66 65 58 58 57 56 55 57 59 62 64 67 70 71 73 75 76 77 80 83 86 88 90
54 53 52 51 53 56 60 61 63 63 59 59 58 57 55 55 58 61 64 66 69 72 75 76 78 78 80 85 88 91 92 95 97
54 52 52 53 53 54 54 55 54 55 58 58 56 55 55 57 63 66 69 71 74 77 79 80 81 82 85 87 91 94 97 99 102
55 52 54 54 54 53 52 53 55 55 55 56 56 57 59 61 65 73 76 78 81 83 87 87 90 91 92 94 96 99 101 104 108
57 56 56 57 56 55 54 53 50 52 54 56 59 62 64 66 68 74 81 82 87 89 93 96 99 100 102 103 105 108 110 114 116
Wind_Direction
272 274 274 274 275 272 274 279 282 284 287 290 288 289 291 292 297 302 305 307 305 301 302 301 294 287 284 280 279 276 276 272 270
271 273 276 279 278 275 274 277 283 286 285 293 296 292 292 296 299 302 305 305 306 304 303 301 292 287 285 283 281 279 276 274 273
271 274 276 276 279 280 280 284 288 289 284 295 297 296 297 297 300 301 303 306 307 306 300 296 291 289 285 283 281 279 276 274 272
270 272 276 278 279 281 282 283 287 285 289 294 293 297 295 297 300 301 302 304 307 304 296 293 291 288 285 283 282 280 277 275 273
271 272 276 279 280 283 284 284 281 286 290 290 292 296 295 297 301 301 303 306 304 300 294 292 289 288 290 289 286 284 282 281 278
270 273 274 274 277 279 280 285 285 285 287 287 291 294 294 300 302 303 303 305 300 290 289 289 291 294 294 293 290 289 287 287 285
268 271 272 275 275 275 280 284 285 285 286 289 290 292 296 298 300 305 302 300 296 285 284 286 287 290 290 291 291 292 293 292 292
267 269 272 275 276 278 279 281 284 284 286 287 289 293 295 295 300 302 301 298 291 286 285 286 286 286 286 288 290 291 290 289 288
266 268 270 272 275 277 277 279 281 282 285 286 289 291 292 294 299 298 297 294 286 285 287 289 291 292 293 294 295 295 294 293 292
267 269 270 273 275 276 278 278 278 280 283 285 288 289 291 294 296 291 291 289 287 286 290 291 291 292 293 295 295 295 295 295 294
268 269 271 274 275 276 276 277 277 280 282 283 285 287 290 294 289 288 285 284 283 285 285 286 286 287 287 287 288 288 289 290 291
268 270 273 274 274 275 275 277 278 278 280 282 283 284 289 290 284 284 282 281 283 285 286 284 284 285 286 285 284 285 287 288 288
269 271 272 273 274 273 275 277 276 277 279 280 281 284 288 282 282 281 280 280 281 283 284 285 285 286 287 287 287 287 287 288 289
272 275 275 273 271 271 272 274 275 278 278 279 280 285 282 279 279 278 278 280 283 283 285 286 286 285 286 285 285 285 286 286 287
275 275 276 275 272 271 272 274 276 275 276 276 283 279 278 276 277 276 279 282 284 285 286 286 286 285 285 286 288 288 287 287 286
272 275 277 276 274 275 275 275 275 276 276 280 277 277 277 275 276 278 281 282 284 286 286 286 287 287 286 287 288 290 289 288 287
272 275 276 277 277 277 276 276 277 278 278 277 277 277 274 275 278 281 283 283 285 287 289 288 289 289 288 288 289 290 290 290 290
269 272 275 277 278 278 277 275 275 277 278 278 278 277 279 281 283 285 285 286 288 290 291 290 290 290 289 289 289 289 290 290 291
267 269 272 273 274 276 277 277 279 279 278 279 279 281 282 283 286 289 291 292 293 293 293 292 292 291 291 290 290 290 291 291 290
264 268 271 273 275 278 277 279 279 279 281 282 284 286 286 287 288 290 293 293 293 294 295 295 295 295 295 295 295 295 295 294 293
Height
10866 10867 10866 10866 10864 10863 10862 10860 10858 10855 10852 10849 10846 10843 10839 10834 10829 10824 10819 10813 10808 10802 10795 10787 10781 10777 10774 10774 10772 10771 10770 10770 10771
10858 10858 10858 10857 10856 10855 10853 10851 10849 10846 10843 10839 10836 10833 10828 10823 10818 10813 10808 10802 10796 10790 10783 10776 10771 10768 10765 10764 10763 10762 10761 10761 10760
10848 10848 10848 10848 10846 10844 10843 10841 10837 10834 10832 10829 10826 10822 10818 10813 10808 10803 10797 10791 10784 10778 10772 10767 10763 10760 10757 10755 10754 10753 10752 10751 10751
10838 10838 10837 10837 10835 10834 10832 10830 10827 10824 10822 10819 10815 10812 10807 10802 10797 10792 10786 10780 10774 10768 10762 10759 10755 10752 10749 10747 10745 10743 10741 10741 10741
10828 10827 10827 10826 10824 10822 10820 10818 10815 10813 10812 10808 10805 10801 10796 10791 10786 10779 10774 10768 10763 10758 10755 10751 10746 10743 10741 10739 10736 10734 10733 10731 10730
10816 10816 10815 10813 10813 10810 10808 10806 10804 10803 10800 10797 10793 10790 10785 10781 10775 10769 10764 10758 10753 10749 10746 10742 10738 10736 10733 10731 10729 10727 10725 10723 10722
10804 10804 10803 10801 10801 10799 10797 10795 10794 10792 10789 10786 10782 10777 10773 10769 10764 10759 10754 10749 10743 10739 10737 10733 10731 10728 10725 10722 10721 10719 10717 10715 10713
10791 10791 10790 10789 10788 10787 10785 10783 10782 10780 10778 10774 10769 10765 10761 10756 10752 10748 10744 10739 10734 10731 10727 10724 10722 10719 10716 10713 10711 10710 10707 10705 10704
10779 10778 10778 10777 10776 10775 10773 10771 10770 10767 10765 10762 10757 10753 10749 10745 10742 10737 10733 10729 10725 10722 10717 10714 10712 10709 10707 10705 10703 10701 10698 10696 10694
10765 10764 10765 10764 10762 10761 10760 10758 10756 10754 10751 10748 10744 10740 10736 10733 10730 10725 10723 10720 10717 10713 10708 10705 10702 10700 10698 10695 10693 10691 10688 10686 10683
10751 10750 10751 10750 10748 10747 10746 10744 10743 10741 10738 10734 10731 10728 10724 10721 10718 10714 10712 10709 10706 10702 10699 10696 10693 10690 10688 10685 10683 10681 10678 10676 10674
10738 10736 10737 10734 10734 10733 10731 10730 10729 10727 10725 10721 10718 10715 10712 10708 10705 10702 10700 10697 10694 10690 10687 10684 10681 10679 10677 10675 10672 10670 10667 10665 10663
10722 10721 10722 10719 10718 10718 10717 10716 10715 10713 10712 10708 10705 10702 10699 10694 10692 10690 10687 10684 10681 10678 10675 10672 10669 10666 10664 10661 10658 10656 10653 10649 10647
10708 10708 10706 10704 10703 10702 10702 10701 10700 10700 10699 10696 10693 10688 10685 10682 10680 10677 10673 10670 10668 10664 10661 10658 10655 10653 10650 10647 10644 10640 10637 10632 10629
10697 10695 10694 10692 10689 10688 10688 10687 10686 10685 10685 10683 10679 10675 10673 10670 10667 10664 10660 10657 10654 10650 10647 10644 10640 10637 10634 10630 10626 10622 10618 10614 10609
10684 10683 10682 10680 10678 10676 10675 10674 10673 10671 10670 10669 10666 10663 10660 10657 10654 10651 10647 10643 10639 10635 10631 10627 10623 10620 10615 10611 10606 10601 10596 10591 10586
10672 10671 10670 10668 10666 10665 10664 10662 10660 10657 10655 10654 10653 10651 10649 10644 10640 10636 10632 10628 10623 10619 10615 10610 10606 10602 10596 10591 10584 10579 10572 10566 10559
10661 10660 10658 10657 10655 10653 10652 10650 10648 10645 10643 10641 10639 10637 10634 10630 10624 10619 10616 10612 10606 10601 10595 10589 10585 10581 10576 10570 10563 10555 10549 10541 10533
10649 10648 10647 10646 10644 10642 10641 10639 10637 10635 10632 10628 10626 10624 10621 10618 10611 10599 10595 10590 10583 10577 10570 10564 10557 10553 10550 10545 10538 10529 10523 10514 10504
10637 10636 10635 10634 10633 10631 10629 10628 10626 10623 10621 10617 10614 10610 10606 10603 10600 10592 10577 10573 10563 10557 10546 10537 10527 10521 10516 10510 10502 10494 10486 10476 10467